| time (UTC) | temp F | wind direction | speed MPH | gust MPH | rain 1hr in | rain 24hr in | rain mn in | humidity % | barometer mb |
| 20260905085459 | 55 | 105 | 0.0 | 1.0 | 0.00 | 0.00 | 0.00 | 88 | 1022.0 |
| 20260905084957 | 56 | 105 | 0.0 | 1.0 | 0.00 | 0.00 | 0.00 | 88 | 1022.0 |
| 20260905084455 | 56 | 105 | 0.0 | 1.0 | 0.00 | 0.00 | 0.00 | 88 | 1022.0 |
| 20260905084227 | 56 | 105 | 0.0 | 1.0 | 0.00 | 0.00 | 0.00 | 88 | 1022.0 |
| 20260905083454 | 56 | 105 | 0.0 | 2.0 | 0.00 | 0.00 | 0.00 | 88 | 1022.2 |
| 20260905082951 | 56 | 105 | 0.0 | 2.0 | 0.00 | 0.00 | 0.00 | 88 | 1022.3 |
| 20260905082722 | 56 | 105 | 0.0 | 2.0 | 0.00 | 0.00 | 0.00 | 88 | 1022.3 |
| 20260905081951 | 56 | 105 | 0.0 | 1.0 | 0.00 | 0.00 | 0.00 | 88 | 1022.3 |
| 20260905081450 | 56 | 143 | 0.0 | 1.0 | 0.00 | 0.00 | 0.00 | 87 | 1022.3 |
| 20260905080949 | 56 | 143 | 0.0 | 1.0 | 0.00 | 0.00 | 0.00 | 87 | 1022.3 |
| 20260905080442 | 56 | 143 | 0.0 | 1.0 | 0.00 | 0.00 | 0.00 | 86 | 1022.3 |
| 20260905080214 | 56 | 143 | 0.0 | 1.0 | 0.00 | 0.00 | 0.00 | 86 | 1022.3 |
| 20260905075439 | 56 | 143 | 0.0 | 1.0 | 0.00 | 0.00 | 0.00 | 86 | 1022.3 |
| 20260905075209 | 56 | 143 | 0.0 | 1.0 | 0.00 | 0.00 | 0.00 | 86 | 1022.3 |
| 20260905074707 | 57 | 143 | 0.0 | 1.0 | 0.00 | 0.00 | 0.00 | 86 | 1022.3 |
| 20260905073932 | 56 | 143 | 0.0 | 1.0 | 0.00 | 0.00 | 0.00 | 86 | 1022.3 |
| 20260905073429 | 56 | 143 | 0.0 | 1.0 | 0.00 | 0.00 | 0.00 | 86 | 1022.3 |
| 20260905072426 | 56 | 143 | 0.0 | 1.0 | 0.00 | 0.00 | 0.00 | 85 | 1022.3 |
| 20260905071925 | 57 | 143 | 0.0 | 1.0 | 0.00 | 0.00 | 0.00 | 85 | 1022.3 |
| 20260905071421 | 57 | 143 | 0.0 | 1.0 | 0.00 | 0.00 | 0.00 | 85 | 1022.3 |
| 20260905070921 | 57 | 143 | 0.0 | 1.0 | 0.00 | 0.00 | 0.00 | 85 | 1022.3 |
| 20260905070419 | 57 | 143 | 0.0 | 1.0 | 0.00 | 0.00 | 0.00 | 85 | 1022.3 |
| 20260905065919 | 57 | 143 | 0.0 | 1.0 | 0.00 | 0.00 | 0.00 | 84 | 1022.3 |
| 20260905065417 | 57 | 143 | 0.0 | 1.0 | 0.00 | 0.00 | 0.00 | 84 | 1022.3 |
| 20260905064917 | 57 | 143 | 0.0 | 1.0 | 0.00 | 0.00 | 0.00 | 84 | 1022.3 |
| 20260905064416 | 57 | 143 | 0.0 | 1.0 | 0.00 | 0.00 | 0.00 | 83 | 1022.3 |
| 20260905063914 | 58 | 143 | 0.0 | 1.0 | 0.00 | 0.00 | 0.00 | 83 | 1022.3 |
| 20260905063414 | 58 | 143 | 0.0 | 1.0 | 0.00 | 0.00 | 0.00 | 83 | 1022.2 |
| 20260905063144 | 58 | 143 | 0.0 | 1.0 | 0.00 | 0.00 | 0.00 | 83 | 1022.2 |
| 20260905062411 | 58 | 143 | 0.0 | 1.0 | 0.00 | 0.00 | 0.00 | 83 | 1022.2 |
| 20260905061911 | 58 | 143 | 0.0 | 1.0 | 0.00 | 0.00 | 0.00 | 83 | 1022.2 |
| 20260905061636 | 58 | 131 | 0.0 | 1.0 | 0.00 | 0.01 | 0.00 | 83 | 1022.2 |
| 20260905060902 | 58 | 131 | 0.0 | 1.0 | 0.00 | 0.02 | 0.00 | 83 | 1022.0 |
| 20260905060401 | 58 | 132 | 0.0 | 0.0 | 0.00 | 0.02 | 0.00 | 83 | 1022.2 |
| 20260905055859 | 58 | 131 | 0.0 | 0.0 | 0.00 | 0.02 | 0.00 | 82 | 1022.0 |
| 20260905055632 | 58 | 131 | 0.0 | 0.0 | 0.00 | 0.02 | 0.00 | 82 | 1022.0 |
| 20260905054856 | 58 | 131 | 0.0 | 0.0 | 0.00 | 0.02 | 0.00 | 81 | 1022.2 |
| 20260905054356 | 58 | 131 | 0.0 | 0.0 | 0.00 | 0.02 | 0.00 | 80 | 1022.2 |
| 20260905053856 | 58 | 132 | 0.0 | 1.0 | 0.00 | 0.02 | 0.00 | 80 | 1022.0 |
| 20260905053354 | 59 | 131 | 0.0 | 1.0 | 0.00 | 0.02 | 0.00 | 80 | 1022.0 |
| 20260905052855 | 59 | 131 | 0.0 | 1.0 | 0.00 | 0.02 | 0.00 | 79 | 1021.9 |
| 20260905052355 | 59 | 131 | 0.0 | 1.0 | 0.00 | 0.02 | 0.00 | 78 | 1021.9 |
| 20260905052127 | 59 | 132 | 0.0 | 0.0 | 0.00 | 0.02 | 0.00 | 78 | 1021.9 |
| 20260905051349 | 59 | 132 | 0.0 | 0.0 | 0.00 | 0.02 | 0.00 | 77 | 1021.9 |
| 20260905050846 | 60 | 131 | 0.0 | 0.0 | 0.00 | 0.02 | 0.00 | 77 | 1021.9 |
| 20260905050345 | 60 | 110 | 0.0 | 0.0 | 0.00 | 0.02 | 0.00 | 76 | 1022.0 |
| 20260905045844 | 60 | 113 | 0.0 | 1.0 | 0.00 | 0.02 | 0.00 | 76 | 1022.0 |
| 20260905045345 | 60 | 114 | 0.0 | 1.0 | 0.00 | 0.02 | 0.00 | 75 | 1022.0 |
| 20260905044837 | 61 | 122 | 0.0 | 0.0 | 0.00 | 0.02 | 0.00 | 74 | 1021.9 |
| 20260905044338 | 61 | 123 | 0.0 | 0.0 | 0.00 | 0.02 | 0.00 | 74 | 1021.9 |
| 20260905043838 | 61 | 122 | 0.0 | 0.0 | 0.00 | 0.02 | 0.00 | 73 | 1021.9 |
| 20260905043338 | 61 | 122 | 0.0 | 0.0 | 0.00 | 0.02 | 0.00 | 73 | 1021.9 |
| 20260905042838 | 62 | 123 | 0.0 | 0.0 | 0.00 | 0.02 | 0.00 | 72 | 1021.9 |
| 20260905041834 | 63 | 104 | 0.0 | 0.0 | 0.00 | 0.02 | 0.00 | 70 | 1021.9 |
| 20260905041333 | 63 | 103 | 0.0 | 0.0 | 0.00 | 0.02 | 0.00 | 69 | 1021.9 |
| 20260905040831 | 63 | 35 | 0.0 | 3.0 | 0.00 | 0.02 | 0.00 | 69 | 1021.8 |
| 20260905035831 | 64 | 84 | 0.0 | 3.0 | 0.00 | 0.02 | 0.00 | 68 | 1021.8 |
| 20260905035603 | 63 | 98 | 0.0 | 3.0 | 0.00 | 0.02 | 0.00 | 69 | 1021.8 |
| 20260905034826 | 63 | 73 | 0.0 | 1.0 | 0.00 | 0.02 | 0.00 | 70 | 1021.7 |
| 20260905034327 | 62 | 94 | 0.0 | 1.0 | 0.00 | 0.02 | 0.00 | 71 | 1021.7 |
| 20260905033828 | 62 | 266 | 0.0 | 0.0 | 0.00 | 0.02 | 0.00 | 72 | 1021.7 |
| 20260905033602 | 62 | 266 | 0.0 | 0.0 | 0.00 | 0.02 | 0.00 | 72 | 1021.6 |
| 20260905032826 | 63 | 266 | 0.0 | 0.0 | 0.00 | 0.02 | 0.00 | 72 | 1021.6 |
| 20260905032326 | 63 | 266 | 0.0 | 0.0 | 0.00 | 0.02 | 0.00 | 71 | 1021.5 |
| 20260905031819 | 63 | 266 | 0.0 | 0.0 | 0.00 | 0.02 | 0.00 | 70 | 1021.5 |
| 20260905031550 | 63 | 266 | 0.0 | 0.0 | 0.00 | 0.02 | 0.00 | 69 | 1021.5 |
| 20260905030816 | 64 | 266 | 0.0 | 0.0 | 0.00 | 0.02 | 0.00 | 69 | 1021.3 |
| 20260905030546 | 64 | 266 | 0.0 | 0.0 | 0.00 | 0.02 | 0.00 | 68 | 1021.2 |
| 20260905025814 | 64 | 266 | 0.0 | 0.0 | 0.00 | 0.02 | 0.00 | 67 | 1021.2 |
| 20260905025306 | 65 | 266 | 0.0 | 0.0 | 0.00 | 0.02 | 0.00 | 65 | 1021.1 |
| 20260905024804 | 65 | 266 | 0.0 | 0.0 | 0.00 | 0.02 | 0.00 | 64 | 1021.0 |
| 20260905024304 | 66 | 266 | 0.0 | 0.0 | 0.00 | 0.02 | 0.00 | 62 | 1021.0 |
| 20260905024032 | 67 | 266 | 0.0 | 0.0 | 0.00 | 0.02 | 0.00 | 62 | 1020.9 |
| 20260905023302 | 67 | 266 | 0.0 | 0.0 | 0.00 | 0.02 | 0.00 | 60 | 1020.9 |
| 20260905022800 | 68 | 266 | 0.0 | 0.0 | 0.00 | 0.02 | 0.00 | 59 | 1020.9 |
| 20260905022255 | 68 | 266 | 0.0 | 0.0 | 0.00 | 0.02 | 0.00 | 57 | 1020.7 |
| 20260905021757 | 69 | 266 | 0.0 | 0.0 | 0.00 | 0.02 | 0.00 | 55 | 1020.7 |
| 20260905021254 | 70 | 266 | 0.0 | 0.0 | 0.00 | 0.02 | 0.00 | 55 | 1020.6 |
| 20260905020753 | 70 | 266 | 0.0 | 0.0 | 0.00 | 0.02 | 0.00 | 53 | 1020.6 |
| 20260905020252 | 71 | 266 | 0.0 | 4.0 | 0.00 | 0.02 | 0.00 | 50 | 1020.5 |
| 20260905015753 | 72 | 266 | 0.0 | 4.0 | 0.00 | 0.02 | 0.00 | 49 | 1020.6 |
| 20260905015248 | 73 | 266 | 1.0 | 4.0 | 0.00 | 0.02 | 0.00 | 48 | 1020.5 |
| 20260905014748 | 73 | 266 | 1.0 | 4.0 | 0.00 | 0.02 | 0.00 | 46 | 1020.5 |
| 20260905014245 | 73 | 256 | 0.0 | 3.0 | 0.00 | 0.02 | 0.00 | 46 | 1020.5 |
| 20260905013746 | 74 | 261 | 0.0 | 7.0 | 0.00 | 0.02 | 0.00 | 45 | 1020.5 |
| 20260905013245 | 74 | 244 | 1.0 | 7.0 | 0.00 | 0.02 | 0.00 | 45 | 1020.5 |
| 20260905012745 | 75 | 196 | 2.0 | 8.0 | 0.00 | 0.02 | 0.00 | 44 | 1020.5 |
| 20260905012513 | 75 | 255 | 2.0 | 8.0 | 0.00 | 0.02 | 0.00 | 44 | 1020.5 |
| 20260905011741 | 75 | 250 | 1.0 | 6.0 | 0.00 | 0.02 | 0.00 | 45 | 1020.4 |
| 20260905011241 | 76 | 273 | 1.0 | 6.0 | 0.00 | 0.02 | 0.00 | 44 | 1020.4 |
| 20260905010741 | 76 | 244 | 2.0 | 6.0 | 0.00 | 0.02 | 0.00 | 43 | 1020.5 |
| 20260905010240 | 77 | 244 | 2.0 | 6.0 | 0.00 | 0.02 | 0.00 | 43 | 1020.4 |
| 20260905005742 | 78 | 242 | 2.0 | 6.0 | 0.00 | 0.02 | 0.00 | 41 | 1020.4 |
| 20260905005237 | 78 | 276 | 2.0 | 6.0 | 0.00 | 0.02 | 0.00 | 41 | 1020.5 |
| 20260905004738 | 78 | 262 | 2.0 | 6.0 | 0.00 | 0.02 | 0.00 | 41 | 1020.5 |
| 20260905004238 | 78 | 265 | 2.0 | 8.0 | 0.00 | 0.02 | 0.00 | 41 | 1020.5 |
| 20260905003738 | 78 | 237 | 1.0 | 8.0 | 0.00 | 0.02 | 0.00 | 42 | 1020.5 |
| 20260905003238 | 78 | 167 | 1.0 | 8.0 | 0.00 | 0.02 | 0.00 | 42 | 1020.5 |
| 20260905002737 | 78 | 253 | 2.0 | 9.0 | 0.00 | 0.02 | 0.00 | 42 | 1020.6 |
| 20260905002233 | 79 | 248 | 2.0 | 9.0 | 0.00 | 0.02 | 0.00 | 41 | 1020.6 |
| 20260905001733 | 79 | 143 | 3.0 | 10.0 | 0.00 | 0.02 | 0.00 | 41 | 1020.6 |
| 20260905001234 | 79 | 206 | 3.0 | 10.0 | 0.00 | 0.02 | 0.00 | 40 | 1020.6 |
| 20260905000732 | 79 | 254 | 2.0 | 6.0 | 0.00 | 0.02 | 0.00 | 41 | 1020.6 |
| 20260905000504 | 79 | 254 | 2.0 | 9.0 | 0.00 | 0.02 | 0.00 | 42 | 1020.6 |
| 20260904235228 | 79 | 268 | 2.0 | 17.0 | 0.00 | 0.02 | 0.00 | 41 | 1020.5 |
| 20260904234729 | 79 | 167 | 2.0 | 17.0 | 0.00 | 0.02 | 0.00 | 41 | 1020.6 |
| 20260904234501 | 79 | 206 | 2.0 | 16.0 | 0.00 | 0.02 | 0.00 | 41 | 1020.5 |
| 20260904233729 | 78 | 251 | 3.0 | 9.0 | 0.00 | 0.02 | 0.00 | 42 | 1020.5 |
| 20260904233228 | 79 | 273 | 2.0 | 10.0 | 0.00 | 0.02 | 0.00 | 41 | 1020.5 |
| 20260904232730 | 80 | 273 | 2.0 | 10.0 | 0.00 | 0.02 | 0.00 | 42 | 1020.5 |
| 20260904232225 | 80 | 237 | 3.0 | 10.0 | 0.00 | 0.02 | 0.00 | 41 | 1020.5 |
| 20260904231724 | 80 | 237 | 2.0 | 10.0 | 0.00 | 0.02 | 0.00 | 41 | 1020.5 |
| 20260904231224 | 79 | 243 | 2.0 | 9.0 | 0.00 | 0.02 | 0.00 | 42 | 1020.5 |
| 20260904230724 | 79 | 231 | 3.0 | 12.0 | 0.00 | 0.02 | 0.00 | 42 | 1020.5 |
| 20260904230456 | 79 | 235 | 3.0 | 12.0 | 0.00 | 0.02 | 0.00 | 40 | 1020.6 |
| 20260904225726 | 79 | 242 | 3.0 | 12.0 | 0.00 | 0.02 | 0.00 | 42 | 1020.6 |
| 20260904225451 | 79 | 240 | 3.0 | 12.0 | 0.00 | 0.02 | 0.00 | 41 | 1020.6 |
| 20260904224721 | 79 | 257 | 3.0 | 13.0 | 0.00 | 0.02 | 0.00 | 41 | 1020.7 |
| 20260904224220 | 79 | 259 | 3.0 | 16.0 | 0.00 | 0.02 | 0.00 | 42 | 1020.7 |
| 20260904223951 | 78 | 252 | 3.0 | 16.0 | 0.00 | 0.02 | 0.00 | 44 | 1020.9 |
| 20260904223220 | 79 | 262 | 4.0 | 17.0 | 0.00 | 0.02 | 0.00 | 42 | 1020.7 |
| 20260904222722 | 79 | 233 | 3.0 | 17.0 | 0.00 | 0.02 | 0.00 | 43 | 1020.9 |
| 20260904222217 | 79 | 173 | 2.0 | 11.0 | 0.00 | 0.02 | 0.00 | 45 | 1020.9 |
| 20260904221716 | 79 | 197 | 3.0 | 11.0 | 0.00 | 0.02 | 0.00 | 44 | 1021.0 |
| 20260904221217 | 79 | 287 | 4.0 | 11.0 | 0.00 | 0.02 | 0.00 | 44 | 1021.0 |
| 20260904220718 | 79 | 105 | 3.0 | 11.0 | 0.00 | 0.02 | 0.00 | 44 | 1021.0 |
| 20260904220218 | 79 | 230 | 3.0 | 11.0 | 0.00 | 0.02 | 0.00 | 44 | 1021.0 |
| 20260904215717 | 79 | 247 | 4.0 | 10.0 | 0.00 | 0.02 | 0.00 | 44 | 1021.0 |
| 20260904215213 | 79 | 250 | 4.0 | 10.0 | 0.00 | 0.02 | 0.00 | 45 | 1021.1 |
| 20260904214713 | 78 | 189 | 3.0 | 13.0 | 0.00 | 0.02 | 0.00 | 44 | 1021.1 |
| 20260904214213 | 78 | 161 | 3.0 | 13.0 | 0.00 | 0.02 | 0.00 | 44 | 1021.2 |
| 20260904213714 | 78 | 254 | 4.0 | 15.0 | 0.00 | 0.02 | 0.00 | 44 | 1021.2 |
| 20260904213216 | 78 | 162 | 4.0 | 15.0 | 0.00 | 0.02 | 0.00 | 45 | 1021.2 |
| 20260904212715 | 78 | 278 | 3.0 | 11.0 | 0.00 | 0.02 | 0.00 | 46 | 1021.1 |
| 20260904212442 | 78 | 240 | 3.0 | 10.0 | 0.00 | 0.02 | 0.00 | 47 | 1021.3 |
| 20260904211708 | 78 | 244 | 2.0 | 9.0 | 0.00 | 0.02 | 0.00 | 47 | 1021.3 |
| 20260904211209 | 79 | 167 | 2.0 | 10.0 | 0.00 | 0.02 | 0.00 | 44 | 1021.5 |
| 20260904210709 | 78 | 227 | 3.0 | 10.0 | 0.00 | 0.02 | 0.00 | 46 | 1021.5 |
| 20260904210208 | 78 | 114 | 3.0 | 10.0 | 0.00 | 0.02 | 0.00 | 45 | 1021.5 |
| 20260904205710 | 78 | 250 | 2.0 | 10.0 | 0.00 | 0.02 | 0.00 | 47 | 1021.6 |
| 20260904205435 | 78 | 186 | 3.0 | 10.0 | 0.00 | 0.02 | 0.00 | 45 | 1021.6 |
| 20260904204935 | 78 | 276 | 3.0 | 14.0 | 0.00 | 0.02 | 0.00 | 44 | 1021.7 |
| 20260904204206 | 78 | 226 | 3.0 | 14.0 | 0.00 | 0.02 | 0.00 | 44 | 1021.6 |
| 20260904203705 | 78 | 205 | 5.0 | 14.0 | 0.00 | 0.02 | 0.00 | 45 | 1021.6 |
| 20260904203205 | 78 | 136 | 5.0 | 14.0 | 0.00 | 0.02 | 0.00 | 44 | 1021.7 |
| 20260904202706 | 78 | 171 | 4.0 | 12.0 | 0.00 | 0.02 | 0.00 | 43 | 1021.8 |
| 20260904202200 | 78 | 175 | 3.0 | 12.0 | 0.00 | 0.02 | 0.00 | 46 | 1021.7 |
| 20260904201701 | 78 | 98 | 3.0 | 8.0 | 0.00 | 0.02 | 0.00 | 44 | 1021.9 |
| 20260904201200 | 77 | 252 | 4.0 | 10.0 | 0.00 | 0.02 | 0.00 | 48 | 1021.9 |
| 20260904200702 | 77 | 261 | 4.0 | 10.0 | 0.00 | 0.02 | 0.00 | 49 | 1022.0 |
| 20260904200201 | 77 | 244 | 3.0 | 10.0 | 0.00 | 0.02 | 0.00 | 47 | 1022.0 |
| 20260904195702 | 78 | 131 | 3.0 | 13.0 | 0.00 | 0.02 | 0.00 | 46 | 1022.0 |
| 20260904195156 | 78 | 226 | 3.0 | 13.0 | 0.00 | 0.02 | 0.00 | 45 | 1022.2 |
| 20260904194928 | 78 | 133 | 3.0 | 14.0 | 0.00 | 0.02 | 0.00 | 47 | 1022.3 |
| 20260904194157 | 77 | 199 | 3.0 | 14.0 | 0.00 | 0.02 | 0.00 | 46 | 1022.4 |
| 20260904193657 | 77 | 207 | 2.0 | 9.0 | 0.00 | 0.02 | 0.00 | 49 | 1022.2 |
| 20260904193156 | 77 | 244 | 2.0 | 10.0 | 0.00 | 0.02 | 0.00 | 49 | 1022.3 |
| 20260904192658 | 77 | 129 | 3.0 | 10.0 | 0.00 | 0.02 | 0.00 | 46 | 1022.4 |
| 20260904192152 | 77 | 316 | 3.0 | 11.0 | 0.00 | 0.02 | 0.00 | 46 | 1022.4 |
| 20260904191646 | 77 | 241 | 4.0 | 11.0 | 0.00 | 0.02 | 0.00 | 50 | 1022.5 |
| 20260904191148 | 76 | 145 | 3.0 | 11.0 | 0.00 | 0.02 | 0.00 | 49 | 1022.5 |
| 20260904190648 | 77 | 123 | 3.0 | 10.0 | 0.00 | 0.02 | 0.00 | 49 | 1022.6 |
| 20260904190148 | 76 | 242 | 3.0 | 12.0 | 0.00 | 0.02 | 0.00 | 50 | 1022.6 |
| 20260904185649 | 76 | 248 | 3.0 | 12.0 | 0.00 | 0.02 | 0.00 | 51 | 1022.6 |
| 20260904185148 | 75 | 278 | 3.0 | 13.0 | 0.00 | 0.02 | 0.00 | 51 | 1022.6 |
| 20260904184642 | 75 | 311 | 2.0 | 13.0 | 0.00 | 0.02 | 0.00 | 52 | 1022.8 |
| 20260904184134 | 76 | 228 | 2.0 | 11.0 | 0.00 | 0.02 | 0.00 | 51 | 1022.9 |
| 20260904183635 | 77 | 80 | 3.0 | 12.0 | 0.00 | 0.02 | 0.00 | 50 | 1022.8 |
| 20260904183135 | 77 | 304 | 3.0 | 12.0 | 0.00 | 0.02 | 0.00 | 51 | 1022.9 |
| 20260904182636 | 76 | 107 | 3.0 | 10.0 | 0.00 | 0.02 | 0.00 | 54 | 1023.0 |
| 20260904182405 | 76 | 169 | 4.0 | 11.0 | 0.00 | 0.02 | 0.00 | 53 | 1023.1 |
| 20260904181636 | 75 | 227 | 4.0 | 11.0 | 0.00 | 0.02 | 0.00 | 55 | 1023.1 |
| 20260904181136 | 75 | 207 | 2.0 | 11.0 | 0.00 | 0.02 | 0.00 | 57 | 1023.1 |
| 20260904180630 | 74 | 169 | 2.0 | 8.0 | 0.00 | 0.02 | 0.00 | 57 | 1023.1 |
| 20260904180124 | 74 | 192 | 2.0 | 12.0 | 0.00 | 0.02 | 0.00 | 57 | 1023.0 |
| 20260904175620 | 74 | 157 | 3.0 | 10.0 | 0.00 | 0.02 | 0.00 | 59 | 1023.0 |
| 20260904175120 | 74 | 207 | 4.0 | 12.0 | 0.00 | 0.02 | 0.00 | 59 | 1023.2 |
| 20260904174848 | 74 | 246 | 3.0 | 9.0 | 0.00 | 0.02 | 0.00 | 56 | 1023.2 |
| 20260904174117 | 75 | 282 | 3.0 | 10.0 | 0.00 | 0.02 | 0.00 | 57 | 1023.1 |
| 20260904173618 | 75 | 210 | 3.0 | 10.0 | 0.00 | 0.02 | 0.00 | 56 | 1023.2 |
| 20260904173115 | 75 | 150 | 2.0 | 9.0 | 0.00 | 0.02 | 0.00 | 57 | 1023.1 |
| 20260904172847 | 75 | 161 | 2.0 | 9.0 | 0.00 | 0.02 | 0.00 | 56 | 1023.1 |
| 20260904172108 | 75 | 203 | 3.0 | 7.0 | 0.00 | 0.02 | 0.00 | 62 | 1023.1 |
| 20260904171608 | 74 | 228 | 3.0 | 7.0 | 0.00 | 0.02 | 0.00 | 57 | 1023.1 |
| 20260904171106 | 74 | 226 | 2.0 | 7.0 | 0.00 | 0.02 | 0.00 | 60 | 1023.1 |
| 20260904170604 | 74 | 234 | 2.0 | 10.0 | 0.00 | 0.02 | 0.00 | 59 | 1023.1 |
| 20260904170336 | 74 | 157 | 2.0 | 10.0 | 0.00 | 0.02 | 0.00 | 64 | 1023.1 |
| 20260904165559 | 73 | 143 | 3.0 | 10.0 | 0.00 | 0.02 | 0.00 | 61 | 1023.0 |
| 20260904165330 | 73 | 150 | 4.0 | 10.0 | 0.00 | 0.02 | 0.00 | 62 | 1023.1 |
| 20260904164600 | 72 | 161 | 4.0 | 10.0 | 0.00 | 0.02 | 0.00 | 66 | 1023.0 |
| 20260904164100 | 72 | 133 | 3.0 | 9.0 | 0.00 | 0.02 | 0.00 | 67 | 1023.0 |
| 20260904163830 | 72 | 139 | 2.0 | 9.0 | 0.00 | 0.02 | 0.00 | 69 | 1022.9 |
| 20260904163058 | 72 | 164 | 2.0 | 8.0 | 0.00 | 0.02 | 0.00 | 68 | 1022.9 |
| 20260904162550 | 71 | 143 | 2.0 | 8.0 | 0.00 | 0.02 | 0.00 | 70 | 1022.8 |
| 20260904162051 | 71 | 113 | 1.0 | 8.0 | 0.00 | 0.02 | 0.00 | 71 | 1022.8 |
| 20260904161550 | 70 | 224 | 0.0 | 4.0 | 0.00 | 0.02 | 0.00 | 73 | 1022.8 |
| 20260904161049 | 69 | 87 | 0.0 | 4.0 | 0.00 | 0.02 | 0.00 | 76 | 1022.6 |
| 20260904160548 | 68 | 154 | 0.0 | 5.0 | 0.00 | 0.02 | 0.00 | 77 | 1022.6 |
| 20260904160050 | 68 | 88 | 1.0 | 7.0 | 0.00 | 0.02 | 0.00 | 76 | 1022.6 |
| 20260904155548 | 69 | 131 | 1.0 | 7.0 | 0.00 | 0.02 | 0.00 | 74 | 1022.6 |
| 20260904155044 | 69 | 101 | 1.0 | 7.0 | 0.00 | 0.02 | 0.00 | 75 | 1022.6 |
| 20260904154546 | 69 | 88 | 1.0 | 7.0 | 0.00 | 0.02 | 0.00 | 75 | 1022.5 |
| 20260904154046 | 69 | 145 | 1.0 | 7.0 | 0.00 | 0.02 | 0.00 | 78 | 1022.5 |
| 20260904153815 | 68 | 107 | 1.0 | 7.0 | 0.00 | 0.02 | 0.00 | 80 | 1022.5 |
| 20260904152811 | 68 | 81 | 2.0 | 7.0 | 0.00 | 0.02 | 0.00 | 81 | 1022.4 |
| 20260904152041 | 67 | 87 | 2.0 | 7.0 | 0.00 | 0.02 | 0.00 | 84 | 1022.4 |
| 20260904151541 | 67 | 103 | 2.0 | 7.0 | 0.00 | 0.02 | 0.00 | 82 | 1022.4 |
| 20260904150538 | 67 | 66 | 2.0 | 5.0 | 0.00 | 0.02 | 0.00 | 85 | 1022.2 |
| 20260904150037 | 67 | 105 | 1.0 | 4.0 | 0.00 | 0.02 | 0.00 | 88 | 1022.3 |
| 20260904145530 | 66 | 157 | 1.0 | 4.0 | 0.00 | 0.02 | 0.00 | 89 | 1022.3 |
| 20260904145032 | 65 | 154 | 0.0 | 2.0 | 0.00 | 0.02 | 0.00 | 91 | 1022.3 |
| 20260904144532 | 65 | 148 | 0.0 | 2.0 | 0.00 | 0.02 | 0.00 | 91 | 1022.3 |
| 20260904144032 | 65 | 148 | 1.0 | 4.0 | 0.00 | 0.02 | 0.00 | 91 | 1022.3 |
| 20260904143532 | 65 | 74 | 1.0 | 4.0 | 0.00 | 0.02 | 0.00 | 92 | 1022.3 |
| 20260904143032 | 65 | 95 | 1.0 | 3.0 | 0.00 | 0.02 | 0.00 | 94 | 1022.2 |
| 20260904142526 | 64 | 95 | 1.0 | 3.0 | 0.00 | 0.02 | 0.00 | 94 | 1022.0 |
| 20260904141753 | 62 | 127 | 0.0 | 0.0 | 0.00 | 0.02 | 0.00 | 95 | 1022.0 |
| 20260904141020 | 62 | 127 | 0.0 | 0.0 | 0.00 | 0.02 | 0.00 | 95 | 1021.9 |
| 20260904140520 | 61 | 127 | 0.0 | 0.0 | 0.00 | 0.02 | 0.00 | 96 | 1021.9 |
| 20260904140015 | 60 | 127 | 0.0 | 0.0 | 0.00 | 0.02 | 0.00 | 95 | 1021.8 |
| 20260904135515 | 60 | 127 | 0.0 | 0.0 | 0.00 | 0.02 | 0.00 | 95 | 1021.7 |
| 20260904135016 | 59 | 128 | 0.0 | 0.0 | 0.00 | 0.02 | 0.00 | 95 | 1021.7 |
| 20260904134516 | 58 | 127 | 0.0 | 0.0 | 0.00 | 0.02 | 0.00 | 95 | 1021.6 |
| 20260904134014 | 58 | 127 | 0.0 | 0.0 | 0.00 | 0.02 | 0.00 | 95 | 1021.5 |
| 20260904133516 | 57 | 127 | 0.0 | 0.0 | 0.00 | 0.02 | 0.00 | 95 | 1021.5 |
| 20260904133006 | 57 | 127 | 0.0 | 0.0 | 0.00 | 0.02 | 0.00 | 95 | 1021.3 |
| 20260904132505 | 57 | 127 | 0.0 | 0.0 | 0.00 | 0.02 | 0.00 | 95 | 1021.3 |
| 20260904132235 | 57 | 127 | 0.0 | 0.0 | 0.00 | 0.02 | 0.00 | 95 | 1021.2 |
| 20260904131502 | 57 | 127 | 0.0 | 0.0 | 0.00 | 0.02 | 0.00 | 95 | 1021.2 |
| 20260904131003 | 57 | 127 | 0.0 | 0.0 | 0.00 | 0.02 | 0.00 | 95 | 1021.1 |
| 20260904130732 | 57 | 127 | 0.0 | 0.0 | 0.00 | 0.02 | 0.00 | 94 | 1021.1 |
| 20260904130230 | 57 | 127 | 0.0 | 0.0 | 0.00 | 0.02 | 0.00 | 94 | 1021.0 |
| 20260904125459 | 57 | 127 | 0.0 | 0.0 | 0.00 | 0.02 | 0.00 | 94 | 1021.0 |
| 20260904124956 | 57 | 127 | 0.0 | 0.0 | 0.00 | 0.02 | 0.00 | 94 | 1020.9 |
| 20260904124454 | 58 | 127 | 0.0 | 0.0 | 0.00 | 0.02 | 0.00 | 94 | 1020.9 |
| 20260904123953 | 58 | 127 | 0.0 | 0.0 | 0.00 | 0.02 | 0.00 | 94 | 1020.7 |
| 20260904123447 | 58 | 127 | 0.0 | 0.0 | 0.00 | 0.02 | 0.00 | 94 | 1020.7 |
| 20260904122945 | 58 | 127 | 0.0 | 0.0 | 0.00 | 0.02 | 0.00 | 94 | 1020.7 |
| 20260904122444 | 58 | 127 | 0.0 | 0.0 | 0.00 | 0.02 | 0.00 | 94 | 1020.7 |
| 20260904122214 | 58 | 127 | 0.0 | 0.0 | 0.00 | 0.02 | 0.00 | 94 | 1020.6 |
| 20260904121442 | 58 | 127 | 0.0 | 0.0 | 0.00 | 0.02 | 0.00 | 94 | 1020.6 |
| 20260904120940 | 58 | 127 | 0.0 | 0.0 | 0.00 | 0.02 | 0.00 | 94 | 1020.6 |
| 20260904120438 | 58 | 128 | 0.0 | 0.0 | 0.00 | 0.02 | 0.00 | 94 | 1020.6 |
| 20260904115439 | 58 | 128 | 0.0 | 0.0 | 0.00 | 0.02 | 0.00 | 93 | 1020.6 |
| 20260904114936 | 58 | 127 | 0.0 | 0.0 | 0.00 | 0.02 | 0.00 | 93 | 1020.6 |
| 20260904114708 | 58 | 128 | 0.0 | 0.0 | 0.00 | 0.02 | 0.00 | 93 | 1020.5 |
| 20260904113931 | 59 | 127 | 0.0 | 0.0 | 0.00 | 0.02 | 0.00 | 93 | 1020.6 |
| 20260904113432 | 59 | 128 | 0.0 | 0.0 | 0.00 | 0.02 | 0.00 | 93 | 1020.5 |
| 20260904112932 | 59 | 127 | 0.0 | 0.0 | 0.00 | 0.02 | 0.00 | 93 | 1020.5 |
| 20260904112432 | 59 | 128 | 0.0 | 0.0 | 0.00 | 0.02 | 0.00 | 93 | 1020.5 |
| 20260904111930 | 59 | 128 | 0.0 | 0.0 | 0.00 | 0.02 | 0.00 | 92 | 1020.5 |
| 20260904111431 | 60 | 127 | 0.0 | 0.0 | 0.00 | 0.02 | 0.00 | 93 | 1020.5 |
| 20260904110929 | 60 | 128 | 0.0 | 0.0 | 0.00 | 0.02 | 0.00 | 92 | 1020.6 |
| 20260904110424 | 60 | 127 | 0.0 | 0.0 | 0.00 | 0.02 | 0.00 | 92 | 1020.5 |
| 20260904105926 | 60 | 127 | 0.0 | 0.0 | 0.00 | 0.02 | 0.00 | 92 | 1020.5 |
| 20260904105656 | 61 | 128 | 0.0 | 0.0 | 0.00 | 0.02 | 0.00 | 92 | 1020.5 |
| 20260904104924 | 61 | 128 | 0.0 | 0.0 | 0.00 | 0.02 | 0.00 | 92 | 1020.4 |
| 20260904104424 | 61 | 128 | 0.0 | 0.0 | 0.00 | 0.02 | 0.00 | 91 | 1020.4 |
| 20260904103922 | 61 | 127 | 0.0 | 0.0 | 0.00 | 0.02 | 0.00 | 91 | 1020.4 |
| 20260904103420 | 61 | 127 | 0.0 | 0.0 | 0.00 | 0.02 | 0.00 | 91 | 1020.3 |
| 20260904102920 | 62 | 128 | 0.0 | 0.0 | 0.00 | 0.02 | 0.00 | 90 | 1020.3 |
| 20260904102419 | 62 | 128 | 0.0 | 0.0 | 0.00 | 0.02 | 0.00 | 90 | 1020.2 |
| 20260904101927 | 62 | 127 | 0.0 | 0.0 | 0.00 | 0.02 | 0.00 | 89 | 1020.3 |
| 20260904101651 | 63 | 128 | 0.0 | 0.0 | 0.00 | 0.02 | 0.00 | 89 | 1020.2 |
| 20260904100923 | 63 | 127 | 0.0 | 0.0 | 0.00 | 0.02 | 0.00 | 89 | 1020.2 |
| 20260904100658 | 63 | 128 | 0.0 | 0.0 | 0.00 | 0.02 | 0.00 | 89 | 1020.2 |
| 20260904095914 | 64 | 128 | 0.0 | 0.0 | 0.00 | 0.02 | 0.00 | 89 | 1020.0 |
| 20260904095415 | 64 | 127 | 0.0 | 0.0 | 0.00 | 0.02 | 0.00 | 88 | 1020.0 |
| 20260904094913 | 64 | 128 | 0.0 | 0.0 | 0.00 | 0.02 | 0.00 | 88 | 1020.0 |
| 20260904094413 | 64 | 128 | 0.0 | 0.0 | 0.00 | 0.02 | 0.00 | 88 | 1020.0 |
| 20260904093906 | 64 | 128 | 0.0 | 0.0 | 0.00 | 0.02 | 0.00 | 88 | 1020.0 |
| 20260904093404 | 65 | 128 | 0.0 | 0.0 | 0.00 | 0.02 | 0.00 | 88 | 1020.0 |
| 20260904093133 | 65 | 155 | 0.0 | 0.0 | 0.00 | 0.02 | 0.00 | 88 | 1019.9 |
| 20260904092400 | 64 | 156 | 0.0 | 4.0 | 0.00 | 0.02 | 0.00 | 88 | 1019.9 |
| 20260904091901 | 64 | 155 | 0.0 | 4.0 | 0.00 | 0.02 | 0.00 | 88 | 1019.9 |
| 20260904091626 | 64 | 155 | 0.0 | 4.0 | 0.00 | 0.02 | 0.00 | 89 | 1020.0 |
| 20260904091125 | 64 | 155 | 0.0 | 4.0 | 0.00 | 0.02 | 0.00 | 89 | 1020.0 |
| 20260904090356 | 64 | 108 | 0.0 | 1.0 | 0.00 | 0.02 | 0.00 | 89 | 1020.0 |
| 20260904085856 | 64 | 108 | 0.0 | 1.0 | 0.00 | 0.02 | 0.00 | 89 | 1020.0 |